Flag for Germany Weather past 2 weeks in Zittau, Saxony, Germany

Now
47 °F

Cool.


Feels Like: 47 °F
Forecast: 52 / 66 °F
Wind: 2 mph from Southeast

Location: Liberec

Current Time: Apr 25, 2015 at 6:27:34 AM

Latest Report: Apr 25, 2015 at 5:00 AM


Visibility: 9 mi

Pressure: 29.92 "Hg

Humidity: 78%

Dew point: 40 °F

Location of ZittauLocation

Historic Weather in Zittau — Graph

°F

Zittau temperature yesterday

Maximum temperature yesterday: 64 °F (at 5:00 PM)
Minimum temperature yesterday: 38 °F (at 6:00 AM)
Average temperature yesterday: 52 °F

Past Weeks' High & Low Weather Summary

 TemperatureHumidityPressure
High70 °F (Apr 15, 4:00 PM)99% (Apr 23, 7:00 AM)30.45 "Hg (Apr 23, 7:00 AM)
Low27 °F (Apr 19, 6:00 AM)20% (Apr 21, 5:00 PM)29.88 "Hg (Apr 24, 6:00 PM)
Average48 °F61%30.15 "Hg
* Reported Apr 10 4:00 AM — Apr 25 4:00 AM, Zittau, Weather by CustomWeather, © 2015

Note: Actual official high and low records may vary slightly from our data, if they occured in-between our weather recording intervals... More about our weather records

Advertising

Zittau weather history for previous 24 hours

 ConditionsComfort  
Time TempWeatherWind HumidityBarometerVisibility
4:00 AM
Sat, Apr 25
48 °FCool.2 mph79%29.93 "Hg9 mi
3:00 AM48 °FCool.3 mph78%29.92 "Hg8 mi
1:00 AM50 °FCool.3 mph72%29.93 "Hg9 mi
12:00 AM51 °FCool.2 mph70%29.94 "Hg9 mi
10:00 PM
Fri, Apr 24
53 °FPassing clouds.2 mph64%29.93 "Hg12 mi
9:00 PM54 °FPassing clouds.1 mph60%29.92 "Hg14 mi
8:00 PM53 °FPassing clouds.2 mph58%29.91 "Hg16 mi
6:00 PM64 °FMild.2 mph39%29.88 "Hg12 mi
5:00 PM64 °FPartly sunny.3 mph39%29.89 "Hg19 mi
4:00 PM63 °FPartly sunny.2 mph39%29.91 "Hg19 mi
3:00 PM62 °FPartly sunny.3 mph42%29.93 "Hg19 mi
2:00 PM63 °FScattered clouds.5 mph34%29.93 "Hg17 mi
1:00 PM63 °FScattered clouds.3 mph38%29.94 "Hg14 mi
12:00 PM60 °FScattered clouds.5 mph41%29.96 "Hg12 mi
11:00 AM61 °FScattered clouds.2 mph43%29.98 "Hg11 mi
10:00 AM58 °FPassing clouds.2 mph47%29.98 "Hg11 mi
9:00 AM56 °FPassing clouds.1 mph59%29.98 "Hg9 mi
8:00 AM48 °FPassing clouds.1 mph76%30.00 "Hg8 mi
7:00 AM40 °FFog.1 mph96%30.02 "Hg4 mi
6:00 AM38 °FFog.1 mph96%30.02 "Hg4 mi
Weather by CustomWeather, © 2015

See weather overviewHow to use our weather pages